Location: Ladrillo (historical)
(32.8195°N, 117.2231°W)
Time: 20:01:16
(UTC+00:00)

Transit 4A - Visible Passes

Search period start: 04 March 2021 00:00
Search period end: 14 March 2021 00:00
Orbit: 866 x 978 km, 66.8° (Epoch: 04 March)

Date Brightness Start Highest point End Pass type
(mag) Time Alt. Az. Time Alt. Az. Time Alt. Az.
04 Mar 7.7 03:07:01 10° NNW 03:12:58 65° ENE 03:16:42 23° SE visible
04 Mar 10.3 04:55:37 10° WNW 04:58:35 14° WSW 05:00:18 13° WSW visible
05 Mar 7.8 03:16:17 10° NNW 03:22:16 81° WSW 03:27:22 14° SSE visible
06 Mar 8.6 03:25:46 10° NW 03:31:29 51° WSW 03:37:04 10° S visible
07 Mar 9.5 03:35:28 10° NW 03:40:37 32° WSW 03:45:41 10° SSW visible
08 Mar 10.2 03:45:36 10° WNW 03:49:42 20° WSW 03:53:45 10° SSW visible
09 Mar 7.8 02:07:15 10° NNW 02:13:13 77° ENE 02:19:01 10° SSE visible
09 Mar 10.7 03:56:52 10° W 03:58:43 11° WSW 04:00:34 10° WSW visible
10 Mar 8.2 02:16:35 10° NNW 02:22:29 69° WSW 02:28:14 10° SSE visible
11 Mar 9.2 02:26:07 10° NW 02:31:41 43° WSW 02:37:06 10° S visible
12 Mar 10.1 02:35:57 10° NW 02:40:48 27° WSW 02:45:33 10° SSW visible
13 Mar 10.6 02:46:20 10° WNW 02:49:51 16° WSW 02:53:20 10° SW visible
